Fort Myers, FL

2:09 PM EDT on May 28, 2017 (GMT -0400)
Page

Weather History for KFMY - June, 2014

Change the Weather History Date:

Thursday, June 26, 2014

  Actual Average Record
Temperature  
Mean Temperature 85 °F 83 °F  
Max Temperature 97 °F 92 °F 97 °F (1952)
Min Temperature 73 °F 74 °F 67 °F (1971)
Degree Days  
Heating Degree Days 0 0  
Month to date heating degree days 0 0  
Since 1 June heating degree days 0 0  
Since 1 July heating degree days 178 287  
Cooling Degree Days 20 18  
Month to date cooling degree days 451 456  
Year to date cooling degree days 1642 1522  
Since 1 June cooling degree days 451 456  
Growing Degree Days 34 (Base 50)    
Moisture  
Dew Point 71 °F    
Average Humidity 73    
Maximum Humidity 94    
Minimum Humidity 39    
Precipitation  
Precipitation 1.33 in 0.36 in 3.37 in (1943)
Month to date precipitation 2.23 8.61  
Year to date precipitation 13.57 20.41  
Sea Level Pressure  
Sea Level Pressure 30.06 in    
Wind  
Wind Speed 5 mph (ENE)    
Max Wind Speed 21 mph    
Max Gust Speed 29 mph    
Visibility 8 miles    
Events Rain , Thunderstorm    
T = Trace of Precipitation, MM = Missing Value Source: NWS Daily Summary

Daily Weather History Graph

Daily Weather History Graph

Search for Another Location

Airport or City:

Trip Planner

Search our weather history database for the weather conditions in past years. The results will help you decide how hot, cold, wet, or windy it might be!

Date:

Astronomy

Jun. 26, 2014 Rise Set
Actual Time 6:36 AM EDT 8:24 PM EDT
Civil Twilight 6:09 AM EDT 8:50 PM EDT
Nautical Twilight 5:38 AM EDT 9:22 PM EDT
Astronomical Twilight 5:04 AM EDT 9:55 PM EDT
Moon 6:06 AM EDT (6/26) 7:52 PM EDT (6/26)
Length of Visible Light 14h 40m
Length of Day
13h 48m
Waning Crescent, 0% of the Moon is Illuminated
Jun 26
Waning Crescent
Jun 27
New
Jul 5
First Quarter
Jul 12
Full
Jul 18
Last Quarter

Hourly Weather History & Observations

Time (EDT) Temp. Heat Index Dew Point Humidity Pressure Visibility Wind Dir Wind Speed Gust Speed Precip Events Conditions
12:53 AM 75.0 °F - 72.0 °F 90% 30.12 in 10.0 mi Calm Calm - N/A   Clear
1:53 AM 75.9 °F - 72.0 °F 87% 30.10 in 10.0 mi SE 4.6 mph - N/A   Clear
3:53 AM 75.9 °F - 72.0 °F 87% 30.08 in 10.0 mi Calm Calm - N/A   Clear
4:53 AM 75.9 °F - 73.0 °F 91% 30.07 in 10.0 mi Calm Calm - N/A   Clear
5:53 AM 75.9 °F - 73.0 °F 91% 30.08 in 10.0 mi Calm Calm - N/A   Clear
6:53 AM 77.0 °F - 72.0 °F 84% 30.09 in 10.0 mi Calm Calm - N/A   Clear
7:53 AM 79.0 °F - 72.0 °F 79% 30.11 in 10.0 mi Calm Calm - N/A   Clear
8:53 AM 84.9 °F 92.1 °F 73.9 °F 69% 30.11 in 10.0 mi North 6.9 mph - N/A   Clear
9:53 AM 86.0 °F 93.0 °F 73.0 °F 65% 30.12 in 10.0 mi North 8.1 mph - N/A   Clear
10:53 AM 89.1 °F 96.0 °F 72.0 °F 57% 30.12 in 10.0 mi North 10.4 mph - N/A   Clear
11:53 AM 91.0 °F 97.6 °F 71.1 °F 52% 30.11 in 10.0 mi North 11.5 mph 17.3 mph N/A   Clear
12:53 PM 93.0 °F 97.9 °F 69.1 °F 45% 30.08 in 10.0 mi North 6.9 mph - N/A   Clear
1:53 PM 95.0 °F 100.7 °F 69.1 °F 43% 30.06 in 10.0 mi NNE 4.6 mph - N/A   Partly Cloudy
2:53 PM 95.0 °F 99.0 °F 66.9 °F 40% 30.04 in 10.0 mi North 11.5 mph - N/A   Scattered Clouds
3:53 PM 93.9 °F 97.5 °F 66.9 °F 41% 30.01 in 10.0 mi East 8.1 mph - N/A   Mostly Cloudy
4:53 PM 93.9 °F 97.0 °F 66.0 °F 40% 29.99 in 10.0 mi East 5.8 mph - N/A   Mostly Cloudy
5:53 PM 95.0 °F 97.9 °F 66.0 °F 38% 29.98 in 10.0 mi ESE 6.9 mph - N/A   Partly Cloudy
6:53 PM 93.0 °F 95.9 °F 66.0 °F 41% 29.97 in 10.0 mi SSE 4.6 mph - N/A   Scattered Clouds
7:53 PM 89.1 °F 98.0 °F 73.9 °F 61% 29.99 in 10.0 mi NW 8.1 mph - N/A   Overcast
8:07 PM 89.1 °F 98.0 °F 73.9 °F 61% 29.99 in 10.0 mi NNW 10.4 mph - N/A Thunderstorm Thunderstorm
8:36 PM 82.9 °F 90.8 °F 75.9 °F 79% 30.02 in 1.8 mi East 11.5 mph 24.2 mph 0.06 in Rain , Thunderstorm Heavy Thunderstorms and Rain
8:51 PM 77.0 °F - 71.6 °F 83% 30.04 in 3.0 mi South 16.1 mph 25.3 mph 0.25 in Rain , Thunderstorm Light Thunderstorms and Rain
8:53 PM 77.0 °F - 73.0 °F 88% 30.04 in 4.0 mi South 16.1 mph 23.0 mph 0.25 in Rain , Thunderstorm Light Thunderstorms and Rain
9:02 PM 75.0 °F - 71.1 °F 87% 30.03 in 9.0 mi South 16.1 mph 25.3 mph 0.00 in Rain , Thunderstorm Light Thunderstorms and Rain
9:49 PM 78.8 °F - 66.2 °F 65% 30.04 in 10.0 mi Calm Calm - 0.00 in Thunderstorm Overcast
9:53 PM 78.1 °F - 66.9 °F 68% 30.06 in 10.0 mi Variable 4.6 mph - 0.00 in Thunderstorm Thunderstorm
10:16 PM 73.9 °F - 69.1 °F 85% 30.07 in 1.5 mi Variable 4.6 mph - 0.11 in Rain , Thunderstorm Heavy Thunderstorms and Rain
10:32 PM 73.0 °F - 71.1 °F 93% 30.05 in 1.8 mi ESE 6.9 mph - 0.52 in Rain , Thunderstorm Heavy Thunderstorms and Rain
10:36 PM 73.0 °F - 71.1 °F 93% 30.05 in 2.0 mi SE 5.8 mph - 0.61 in Rain , Thunderstorm Heavy Thunderstorms and Rain
10:53 PM 73.9 °F - 72.0 °F 93% 30.08 in 2.0 mi Calm Calm - 0.69 in Rain , Thunderstorm Thunderstorms and Rain
11:01 PM 73.9 °F - 71.1 °F 91% 30.06 in 1.5 mi WNW 6.9 mph - 0.11 in Rain , Thunderstorm Thunderstorms and Rain
11:08 PM 73.9 °F - 72.0 °F 93% 30.11 in 3.0 mi North 8.1 mph - 0.14 in Rain , Thunderstorm Thunderstorms and Rain
11:37 PM 73.9 °F - 72.0 °F 93% 30.10 in 2.5 mi Variable 3.5 mph - 0.32 in Rain , Thunderstorm Heavy Thunderstorms and Rain
11:53 PM 75.0 °F - 73.0 °F 94% 30.10 in 5.0 mi SSW 6.9 mph - 0.37 in Rain , Thunderstorm Light Thunderstorms and Rain